Flag for Germany Weather past 2 weeks in Brühl (Rhineland), North Rhine-Westphalia, Germany

Now
56 °F

Passing clouds.


Feels Like: 56 °F
Forecast: 58 / 78 °F
Wind: 1 mph from Southwest

Location: Noervenich

Current Time: Jul 31, 2014 at 7:53:05 AM

Latest Report: Jul 31, 2014 at 7:00 AM


Visibility: 16 mi

Pressure: 30.03 "Hg

Humidity: 91%

Dew point: 53 °F

Location of Brühl (Rhineland)Location

Historic Weather in Brühl (Rhineland) — Graph

°F

Brühl (Rhineland) temperature yesterday

Maximum temperature yesterday: 74 °F (at 4:00 PM)
Minimum temperature yesterday: 63 °F (at 7:00 AM)
Average temperature yesterday: 68 °F

Past Weeks' High & Low Weather Summary

 TemperatureHumidityPressure
High93 °F (Jul 18, 6:00 PM)99% (Jul 22, 1:00 AM)30.19 "Hg (Jul 22, 1:00 AM)
Low56 °F (Jul 25, 6:00 AM)27% (Jul 18, 7:00 PM)29.77 "Hg (Jul 20, 1:00 PM)
Average71 °F75%29.95 "Hg
* Reported Jul 16 6:00 AM — Jul 31 6:00 AM, Brühl (Rhineland), Weather by CustomWeather, © 2014

Note: Actual official high and low records may vary slightly from our data, if they occured in-between our weather recording intervals... More about our weather records

Advertising

Brühl (Rhineland) weather history for previous 24 hours

 ConditionsComfort  
Time TempWeatherWind HumidityBarometerVisibility
6:00 AM
Jul 31
56 °FPassing clouds.2 mph91%30.02 "Hg16 mi
4:00 AM58 °FPassing clouds.2 mph86%30.02 "Hg16 mi
3:00 AM61 °FOvercast.2 mph86%30.02 "Hg16 mi
2:00 AM60 °FPassing clouds.2 mph89%30.01 "Hg19 mi
1:00 AM61 °FClear.2 mph87%30.01 "Hg19 mi
12:00 AM62 °FClear.3 mph82%30.00 "Hg16 mi
11:00 PM
Jul 30
N/APassing clouds.3 mphN/AN/A4 mi
10:00 PM67 °FPassing clouds.2 mph75%29.98 "Hg16 mi
9:00 PM68 °FPartly sunny.3 mph70%29.96 "Hg22 mi
8:00 PM71 °FPartly sunny.3 mph60%29.93 "Hg19 mi
7:00 PM70 °FPartly sunny.5 mph63%29.92 "Hg19 mi
6:00 PM72 °FPartly sunny.5 mph62%29.92 "Hg19 mi
4:00 PM74 °FPartly sunny.5 mph56%29.91 "Hg28 mi
3:00 PM72 °FScattered clouds.5 mph53%29.92 "Hg25 mi
1:00 PM71 °FScattered clouds.5 mph60%29.92 "Hg19 mi
12:00 PM68 °FScattered clouds.5 mph68%29.91 "Hg19 mi
10:00 AM64 °FLow clouds.3 mph87%29.90 "Hg12 mi
9:00 AM64 °FLow clouds.5 mph90%29.89 "Hg7 mi
7:00 AM63 °FLow clouds.5 mph93%29.87 "Hg5 mi
Weather by CustomWeather, © 2014

See weather overviewHow to use our weather pages